{"data":{"norad_id":65552,"epoch":"2026-09-20T09:06:03.546144Z","epoch_age_seconds":162921,"freshness":"FRESH","line1":"1 65552U 25201C   26263.37920771  .00000853  00000+0  12740-3 0  9990","line2":"2 65552  49.9890 317.6701 0010941 267.9068  92.0618 14.84369794 55935","mean_motion":14.84369794,"eccentricity":0.0010941,"inclination_deg":49.989,"raan_deg":317.6701,"arg_perigee_deg":267.9068,"mean_anomaly_deg":92.0618,"bstar":0.0001274,"rev_number":5593,"period_min":97.010866552301,"perigee_km":607.91285892063,"apogee_km":623.21647691036,"semimajor_km":6993.7016679155,"source":"CELESTRAK","updated_at":"2026-09-21T09:00:15.424686Z"}}